[[{"header":{"parameterUnit":"m.s-1","parameterCategory":1,"la1":30.2991,"la2":30.254,"lo1":-89.0895,"lo2":-89.0444,"dx":0.0017,"dy":0.0017,"nx":28,"ny":28,"refTime":"2023-01-02T15:00:00:Z","depth":0,"parameterNumber":2,"parameterNumberName":"U-component_of_WINDS"},"data":[0,0,0,0,0,0,0,0,0,0,0,0,0,0,0,0,0,0,0,0,0,0,0,0,0,0,0,0,0,0,0,0,0,0,0,0,0,0,0,0,0,0,0,0,0,0,0,0,0,0,0,0,0,0,0,0,0,0,-2.7626,-2.7627,0,-2.7712,-2.7713,-2.7714,-2.7714,-2.7713,-2.7712,-2.7711,-2.7797,-2.78,-2.7803,0,0,0,0,0,0,0,0,0,0,0,0,0,-2.7461,-2.7464,-2.7626,-2.7627,-2.7628,-2.7712,-2.7713,-2.7714,-2.7714,-2.7713,-2.7712,-2.7711,-2.7795,-2.7799,-2.7803,0,0,0,0,0,0,0,0,0,0,0,0,0,-2.7538,-2.7465,-2.7626,-2.7639,-2.7641,-2.7711,-2.7713,-2.7714,-2.7715,-2.7713,-2.7711,-2.771,-2.7794,-2.7799,-2.7804,-2.7867,0,0,-2.7819,-2.7821,0,0,0,0,0,0,0,0,-2.7534,-2.7544,-2.7636,-2.7638,-2.764,-2.7701,-2.7686,-2.7765,-2.7715,-2.7687,-2.7711,-2.7709,-2.7766,-2.7773,-2.7793,-2.7871,-2.7875,-2.7819,-2.7822,-2.7824,-2.7826,0,0,0,0,0,0,0,-2.7528,-2.754,-2.766,-2.7637,-2.764,-2.7639,-2.7648,-2.7701,-2.7734,-2.7689,-2.7689,-2.7699,-2.7767,-2.7788,-2.7795,-2.7876,-2.7819,-2.7824,-2.7827,-2.7829,-2.8009,-2.8011,0,0,0,0,0,0,-2.7521,-2.7536,-2.7657,-2.7663,-2.7582,-2.7644,-2.7654,-2.7683,-2.7734,-2.774,-2.7701,-2.7699,-2.778,-2.7789,-2.7798,-2.7873,-2.7824,-2.7829,-2.7832,-2.8007,-2.8009,-2.8011,0,0,0,0,0,0,-2.7517,-2.7532,-2.7654,-2.7599,-2.7615,-2.7648,-2.7681,-2.7686,-2.7707,-2.7743,-2.7748,-2.7716,-2.7779,-2.7791,-2.785,-2.7876,-2.7831,-2.7836,-2.8005,-2.8008,-2.801,-2.8026,0,0,0,0,0,0,-2.7512,-2.753,-2.7555,-2.76,-2.7618,-2.7705,-2.7683,-2.7688,-2.7715,-2.7714,-2.7759,-2.7765,-2.7779,-2.7842,-2.7854,-2.7882,-2.784,-2.8003,-2.8006,-2.8009,-2.8023,-2.8029,-2.8034,0,0,0,0,0,-2.7507,-2.7556,-2.7556,-2.7571,-2.765,-2.7707,-2.7717,-2.7733,-2.7718,-2.7742,-2.7765,-2.7763,-2.7872,-2.7848,-2.7862,-2.7892,-2.8001,-2.8005,-2.8009,-2.8021,-2.8028,-2.8034,0,0,0,0,0,0,-2.7513,-2.7562,-2.7563,-2.7629,-2.7664,-2.7707,-2.7738,-2.774,-2.7779,-2.7776,-2.7794,-2.7804,-2.7862,-2.7883,-2.7856,-2.7955,-2.7934,-2.7942,-2.7939,-2.7946,-2.7951,-2.7944,-2.7844,0,0,0,0,0,-2.7522,-2.7565,-2.7606,-2.766,-2.7677,-2.7705,-2.773,-2.774,-2.7776,-2.779,-2.7818,-2.7853,-2.7894,-2.7922,-2.7962,-2.8027,-2.8036,-2.8054,-2.806,-2.8064,-2.8069,-2.8103,-2.8111,-2.8025,-2.8025,-2.8025,0,0,-2.7541,-2.7574,-2.7599,-2.7662,-2.769,-2.7732,-2.7717,-2.7763,-2.7795,-2.7797,-2.7854,-2.7876,-2.7916,-2.7977,-2.8006,-2.7996,-2.8095,-2.8069,-2.8072,-2.8075,-2.8108,-2.8116,-2.8124,-2.8028,-2.8027,-2.8027,0,0,-2.7598,-2.7627,-2.7675,-2.7703,-2.7746,-2.7764,-2.7776,-2.7819,-2.7833,-2.7891,-2.7893,-2.793,-2.8003,-2.803,-2.8054,-2.8121,-2.8119,-2.8134,-2.8161,-2.8194,-2.82,-2.8207,-2.8228,-2.8236,-2.8139,-2.8139,-2.8139,0,-2.7616,-2.7681,-2.7699,-2.7745,-2.7771,-2.7777,-2.7824,-2.7851,-2.7904,-2.7922,-2.7911,-2.8001,-2.8029,-2.8096,-2.8112,-2.8132,-2.8144,-2.8128,-2.8198,-2.8205,-2.821,-2.8231,-2.824,-2.8141,-2.8141,-2.814,-2.814,0,-2.77,-2.7745,-2.7778,-2.783,-2.7861,-2.7907,-2.7931,-2.796,-2.7967,-2.7986,-2.8044,-2.8077,-2.8124,-2.8141,-2.8148,-2.8209,-2.8202,-2.8195,-2.8174,-2.822,-2.8239,-2.8248,-2.8142,-2.8142,-2.8142,-2.8141,0,0,-2.7761,-2.7823,-2.7834,-2.7857,-2.7905,-2.794,-2.7986,-2.8032,-2.8056,-2.8093,-2.8131,-2.8192,-2.8186,-2.8212,-2.8223,-2.8252,-2.83,-2.8241,-2.8242,-2.8249,-2.8367,-2.837,-2.838,-2.8301,-2.8303,-2.8304,-2.8363,0,-2.7821,-2.7904,-2.7921,-2.7992,-2.8033,-2.8039,-2.8079,-2.8112,-2.8131,-2.8168,-2.8189,-2.8231,-2.822,-2.8236,-2.8266,-2.8288,-2.8324,-2.8285,-2.8335,-2.8336,-2.8322,-2.839,-2.8394,-2.8448,-2.8371,-2.8373,-2.8374,0,-2.7901,-2.794,-2.8015,-2.8056,-2.8074,-2.811,-2.8153,-2.8189,-2.8226,-2.8238,-2.8268,-2.8275,-2.8323,-2.8302,-2.8366,-2.8339,-2.8361,-2.8375,-2.8377,-2.8381,-2.8356,-2.8393,-2.8466,-2.8474,-2.8386,-2.8385,-2.8384,0,-2.7936,-2.8007,-2.8061,-2.8081,-2.8131,-2.8155,-2.8177,-2.8213,-2.8239,-2.8277,-2.8294,-2.8337,-2.836,-2.8392,-2.8411,-2.8394,-2.8473,-2.8454,-2.8482,-2.8482,-2.8497,-2.8495,-2.8572,-2.8515,-2.8515,-2.8515,-2.8514,0,-2.7999,-2.8044,-2.8077,-2.8109,-2.816,-2.8179,-2.8229,-2.825,-2.8282,-2.8318,-2.8327,-2.836,-2.8383,-2.842,-2.8435,-2.8485,-2.8496,-2.8505,-2.8508,-2.8503,-2.8502,-2.8516,-2.8512,-2.8517,-2.8516,-2.8516,-2.8515,0,-2.8045,-2.8069,-2.8127,-2.817,-2.8182,-2.8217,-2.8253,-2.8284,-2.8304,-2.835,-2.8362,-2.8392,-2.8436,-2.8458,-2.8512,-2.8522,-2.8578,-2.8579,-2.8565,-2.8565,-2.8592,-2.8588,-2.8679,-2.8691,-2.8628,-2.8628,-2.8629,0,-2.8082,-2.8117,-2.8164,-2.8189,-2.8211,-2.8252,-2.8279,-2.8299,-2.8327,-2.8371,-2.8397,-2.8442,-2.8478,-2.8547,-2.8573,-2.8615,-2.8616,-2.8645,-2.8622,-2.8616,-2.8614,-2.8611,-2.8613,-2.8648,-2.8649,-2.8649,-2.865,0,-2.8146,-2.8156,-2.8195,-2.8238,-2.8269,-2.8304,-2.8338,-2.8358,-2.8384,-2.8415,-2.8459,-2.8488,-2.8543,-2.8586,-2.863,-2.8651,-2.8654,-2.8657,-2.8666,-2.866,-2.8649,-2.8653,-2.8573,-2.8654,-2.8654,-2.8654,-2.8653,-2.8653,-2.8188,-2.8218,-2.8255,-2.8298,-2.8326,-2.8357,-2.8388,-2.8412,-2.845,-2.8497,-2.8507,-2.8554,-2.8589,-2.8648,-2.8671,-2.8707,-2.8701,-2.8714,-2.8717,-2.8719,-2.8719,-2.8645,-2.8716,-2.8716,-2.8716,-2.8716,-2.8715,0,-2.8249,-2.8274,-2.8313,-2.836,-2.8393,-2.8395,-2.8432,-2.8459,-2.8501,-2.8534,-2.857,-2.8621,-2.8663,-2.8693,-2.8735,-2.8758,-2.876,-2.8768,-2.8766,-2.877,-2.8723,-2.8711,-2.8766,-2.8766,-2.8766,-2.8766,-2.8766,-2.8766,-2.8285,-2.8336,-2.8351,-2.8416,-2.844,-2.8486,-2.8507,-2.8536,-2.8562,-2.8619,-2.8654,-2.8673,-2.8705,-2.8749,-2.8787,-2.8795,-2.8809,-2.8817,-2.8824,-2.8779,-2.8774,-2.8769,-2.8757,-2.882,-2.882,-2.8868,-2.8868,-2.8868]},{"header":{"parameterUnit":"m.s-1","parameterCategory":1,"la1":30.2991,"la2":30.254,"lo1":-89.0895,"lo2":-89.0444,"dx":0.0017,"dy":0.0017,"nx":28,"ny":28,"refTime":"2023-01-02T15:00:00:Z","depth":0,"parameterNumber":3,"parameterNumberName":"V-component_of_WINDS"},"data":[0,0,0,0,0,0,0,0,0,0,0,0,0,0,0,0,0,0,0,0,0,0,0,0,0,0,0,0,0,0,0,0,0,0,0,0,0,0,0,0,0,0,0,0,0,0,0,0,0,0,0,0,0,0,0,0,0,0,2.1489,2.149,0,2.1581,2.1582,2.1583,2.1606,2.1605,2.1604,2.1604,2.1697,2.17,2.1703,0,0,0,0,0,0,0,0,0,0,0,0,0,2.1334,2.1336,2.1489,2.149,2.1491,2.1581,2.1582,2.1583,2.1606,2.1605,2.1604,2.1604,2.1696,2.17,2.1704,0,0,0,0,0,0,0,0,0,0,0,0,0,2.1411,2.1337,2.1489,2.1513,2.1516,2.1581,2.1582,2.1584,2.1606,2.1605,2.1604,2.1603,2.1695,2.17,2.1704,2.175,0,0,2.1718,2.172,0,0,0,0,0,0,0,0,2.1406,2.1417,2.1508,2.1512,2.1515,2.1581,2.1562,2.164,2.1606,2.1572,2.1604,2.1603,2.1659,2.1667,2.1686,2.1755,2.1759,2.1719,2.1721,2.1723,2.1725,0,0,0,0,0,0,0,2.1401,2.1413,2.1525,2.151,2.1514,2.152,2.153,2.1577,2.1619,2.1575,2.1577,2.1587,2.1661,2.1682,2.1688,2.176,2.1718,2.1722,2.1725,2.1727,2.1875,2.1876,0,0,0,0,0,0,2.1391,2.1408,2.1522,2.1528,2.1458,2.1523,2.1535,2.1561,2.1619,2.1627,2.1588,2.1588,2.1674,2.1683,2.1692,2.1752,2.1723,2.1728,2.173,2.1873,2.1875,2.1876,0,0,0,0,0,0,2.1388,2.1401,2.1519,2.1469,2.1484,2.1527,2.1556,2.1563,2.1584,2.1629,2.1637,2.1601,2.1674,2.1685,2.1736,2.1756,2.173,2.1734,2.1872,2.1874,2.1875,2.1872,0,0,0,0,0,0,2.1383,2.14,2.1418,2.1469,2.1487,2.1562,2.1557,2.1565,2.1592,2.1592,2.1643,2.1651,2.1674,2.1729,2.1741,2.1762,2.1737,2.1871,2.1873,2.1875,2.1871,2.1873,2.1876,0,0,0,0,0,2.1378,2.1412,2.1419,2.1432,2.151,2.1563,2.1573,2.1599,2.1593,2.1612,2.1641,2.1649,2.1751,2.1735,2.1748,2.177,2.1869,2.1872,2.1875,2.1869,2.1873,2.1876,0,0,0,0,0,0,2.1362,2.1419,2.1427,2.1479,2.1516,2.1566,2.1591,2.1601,2.164,2.164,2.167,2.1681,2.1731,2.1755,2.1735,2.1819,2.181,2.1816,2.1802,2.1805,2.1808,2.1802,2.1741,0,0,0,0,0,2.1364,2.1402,2.1451,2.1492,2.151,2.1547,2.1571,2.1588,2.1627,2.1643,2.1676,2.1714,2.1755,2.1781,2.1821,2.1874,2.1886,2.1895,2.1898,2.19,2.1905,2.1937,2.1942,2.1885,2.1885,2.1885,0,0,2.137,2.1406,2.1428,2.149,2.152,2.156,2.156,2.1601,2.1631,2.1649,2.1701,2.1726,2.177,2.1823,2.1848,2.1845,2.1923,2.1903,2.1904,2.1908,2.194,2.1946,2.1951,2.1887,2.1886,2.1886,0,0,2.1401,2.1431,2.147,2.1501,2.1548,2.1573,2.1582,2.1631,2.1649,2.1701,2.1716,2.1752,2.1821,2.1853,2.1878,2.1923,2.1933,2.1935,2.1949,2.198,2.1985,2.1989,2.2007,2.2013,2.1939,2.1939,2.1939,0,2.1402,2.1462,2.1489,2.153,2.1558,2.1576,2.1617,2.1646,2.1703,2.1722,2.1717,2.1806,2.1837,2.1899,2.191,2.1929,2.1942,2.193,2.1982,2.1986,2.1991,2.2009,2.2015,2.1939,2.1939,2.1939,2.1939,0,2.1462,2.1504,2.153,2.1586,2.1616,2.1657,2.169,2.1718,2.1732,2.1758,2.1811,2.1849,2.1898,2.1914,2.1928,2.1978,2.1975,2.1976,2.1968,2.1996,2.2014,2.202,2.194,2.194,2.194,2.1939,0,0,2.1486,2.1557,2.1567,2.1593,2.1647,2.168,2.1722,2.177,2.1795,2.1833,2.1871,2.1929,2.1931,2.196,2.1977,2.2004,2.2041,2.2002,2.2004,2.201,2.2102,2.2102,2.211,2.2047,2.2048,2.2049,2.2099,0,2.1525,2.1602,2.1628,2.1691,2.1731,2.175,2.1787,2.1824,2.1849,2.1887,2.1915,2.1957,2.1955,2.1973,2.2,2.203,2.206,2.2027,2.2083,2.2085,2.2074,2.2119,2.2119,2.2164,2.2105,2.2106,2.2107,0,2.1581,2.1623,2.169,2.1741,2.1759,2.1792,2.184,2.1875,2.1918,2.1935,2.1968,2.1984,2.203,2.2018,2.2082,2.2059,2.2084,2.2102,2.2105,2.2113,2.2099,2.213,2.2179,2.2186,2.2118,2.2117,2.2116,0,2.1595,2.1667,2.1718,2.174,2.1799,2.1822,2.1848,2.1891,2.1919,2.1961,2.198,2.2026,2.2051,2.2087,2.2116,2.2104,2.2178,2.2168,2.2195,2.2194,2.2211,2.221,2.2267,2.2223,2.2223,2.2223,2.2222,0,2.1638,2.1679,2.1725,2.1756,2.1804,2.1833,2.188,2.1907,2.1945,2.1982,2.2,2.2035,2.207,2.211,2.2132,2.2184,2.2194,2.221,2.2216,2.221,2.2208,2.2228,2.2226,2.2224,2.2224,2.2224,2.2223,0,2.1661,2.1693,2.1751,2.1803,2.1817,2.185,2.1895,2.1927,2.1953,2.2,2.2013,2.2054,2.2102,2.2134,2.2194,2.221,2.2267,2.227,2.2253,2.2256,2.2281,2.228,2.2355,2.2367,2.2312,2.2313,2.2313,0,2.1687,2.172,2.1776,2.1803,2.183,2.1872,2.1902,2.1932,2.1963,2.2015,2.2041,2.209,2.2132,2.2207,2.2243,2.229,2.2297,2.232,2.2304,2.2298,2.23,2.2299,2.2303,2.2323,2.2323,2.2324,2.2324,0,2.1731,2.1746,2.1788,2.1836,2.1871,2.1911,2.195,2.1971,2.2009,2.2042,2.2091,2.2124,2.2187,2.2236,2.2287,2.2314,2.2326,2.2328,2.2338,2.2333,2.2322,2.2331,2.2262,2.2327,2.2327,2.2326,2.2326,2.2326,2.1759,2.179,2.1835,2.1882,2.1915,2.1952,2.1985,2.2016,2.2058,2.2112,2.2128,2.218,2.2224,2.2294,2.2322,2.2364,2.2362,2.2374,2.2378,2.2381,2.2383,2.2314,2.2373,2.2373,2.2373,2.2373,2.2373,0,2.1806,2.1836,2.1879,2.1934,2.1972,2.1979,2.2024,2.2055,2.2101,2.2141,2.2182,2.224,2.2289,2.2328,2.2379,2.2405,2.2412,2.2417,2.2417,2.2423,2.238,2.2369,2.2411,2.2411,2.2411,2.2411,2.2411,2.2411,2.1835,2.1888,2.1909,2.198,2.201,2.2062,2.2087,2.2122,2.2154,2.2219,2.226,2.2285,2.2326,2.238,2.2425,2.2435,2.2454,2.2459,2.2471,2.243,2.2426,2.2422,2.2411,2.2462,2.2462,2.2511,2.2511,2.2512]}]]